WAT5394 SEGU-SPJC

Flight info

Callsign WAT5394
Flight time 0h 54m
Altitude 35000
Route MIMIT2 EVRED UL780 TRU UV1 ATATU
Aircraft A320/M-SDE3FGHIRWY/LB1

Departure

Time 2026-04-23 14:39
Airport José Joaquín de Olmedo International Airport (SEGU)

Arrival

Time 2026-04-23 15:33
Airport Jorge Chávez International Airport (SPJC)
Time Latitude Longitude Altitude Speed Heading
2026-04-23 14:34 -2.15304 -79.88224 21 ft 12 kts 184°
2026-04-23 14:35 -2.15382 -79.88266 21 ft 14 kts 211°
2026-04-23 14:35 -2.15470 -79.88317 21 ft 15 kts 209°
2026-04-23 14:35 -2.15569 -79.88373 23 ft 17 kts 209°
2026-04-23 14:35 -2.15681 -79.88436 21 ft 19 kts 209°
2026-04-23 14:36 -2.15805 -79.88504 23 ft 21 kts 209°
2026-04-23 14:36 -2.15935 -79.88581 23 ft 23 kts 213°
2026-04-23 14:36 -2.16076 -79.88667 23 ft 24 kts 211°
2026-04-23 14:36 -2.16227 -79.88757 23 ft 26 kts 211°
2026-04-23 14:37 -2.16388 -79.88853 23 ft 28 kts 210°
2026-04-23 14:37 -2.16554 -79.88948 22 ft 26 kts 210°
2026-04-23 14:37 -2.16690 -79.89002 23 ft 19 kts 166°
2026-04-23 14:37 -2.16718 -79.88928 22 ft 12 kts 44°
2026-04-23 14:38 -2.16662 -79.88894 22 ft 26 kts 30°
2026-04-23 14:38 -2.16295 -79.88685 23 ft 94 kts 29°
2026-04-23 14:38 -2.15564 -79.88266 21 ft 146 kts 29°
2026-04-23 14:38 -2.14616 -79.87735 396 ft 156 kts 29°
2026-04-23 14:39 -2.13679 -79.87194 960 ft 156 kts 29°
2026-04-23 14:39 -2.12729 -79.86661 1491 ft 156 kts 28°
2026-04-23 14:39 -2.11756 -79.86116 1896 ft 169 kts 28°
2026-04-23 14:39 -2.10705 -79.85442 2121 ft 192 kts 46°
2026-04-23 14:40 -2.10191 -79.84157 2382 ft 215 kts 93°
2026-04-23 14:40 -2.10763 -79.82779 2873 ft 222 kts 136°
2026-04-23 14:40 -2.12136 -79.82120 3560 ft 225 kts 174°
2026-04-23 14:40 -2.13715 -79.82063 4306 ft 227 kts 180°
2026-04-23 14:41 -2.15278 -79.82112 5028 ft 229 kts 182°
2026-04-23 14:41 -2.16874 -79.82186 5747 ft 231 kts 182°
2026-04-23 14:41 -2.18504 -79.82260 6474 ft 232 kts 182°
2026-04-23 14:41 -2.20102 -79.82325 7133 ft 234 kts 182°
2026-04-23 14:42 -2.21736 -79.82381 7793 ft 236 kts 182°
2026-04-23 14:42 -2.23403 -79.82322 8278 ft 249 kts 176°
2026-04-23 14:42 -2.25216 -79.82192 8558 ft 273 kts 176°
2026-04-23 14:42 -2.27160 -79.82048 9111 ft 285 kts 176°
2026-04-23 14:43 -2.29152 -79.81898 9831 ft 289 kts 176°
2026-04-23 14:43 -2.31183 -79.81744 10343 ft 300 kts 176°
2026-04-23 14:43 -2.33341 -79.81584 10485 ft 323 kts 176°
2026-04-23 14:43 -2.35657 -79.81412 10605 ft 344 kts 176°
2026-04-23 14:44 -2.38099 -79.81228 10896 ft 358 kts 176°
2026-04-23 14:44 -2.40603 -79.81039 11448 ft 363 kts 176°
2026-04-23 14:44 -2.43135 -79.80849 12015 ft 367 kts 176°
2026-04-23 14:44 -2.45699 -79.80657 12589 ft 370 kts 176°
2026-04-23 14:45 -2.48286 -79.80466 13151 ft 374 kts 176°
2026-04-23 14:45 -2.50895 -79.80270 13710 ft 378 kts 176°
2026-04-23 14:45 -2.53539 -79.80073 14211 ft 382 kts 176°
2026-04-23 14:45 -2.56200 -79.79876 14739 ft 385 kts 176°
2026-04-23 14:46 -2.58879 -79.79676 15245 ft 388 kts 176°
2026-04-23 14:46 -2.61589 -79.79469 15764 ft 391 kts 176°
2026-04-23 14:46 -2.64313 -79.79261 16275 ft 394 kts 176°
2026-04-23 14:46 -2.67056 -79.79054 16798 ft 397 kts 176°
2026-04-23 14:47 -2.69794 -79.78849 17302 ft 401 kts 176°
2026-04-23 14:47 -2.72586 -79.78643 17855 ft 405 kts 176°
2026-04-23 14:47 -2.75406 -79.78436 18366 ft 408 kts 176°
2026-04-23 14:47 -2.78257 -79.78227 18817 ft 412 kts 176°
2026-04-23 14:48 -2.81121 -79.77998 19276 ft 415 kts 175°
2026-04-23 14:48 -2.84006 -79.77685 19742 ft 418 kts 173°
2026-04-23 14:48 -2.86902 -79.77308 20222 ft 421 kts 172°
2026-04-23 14:48 -2.89814 -79.76900 20671 ft 424 kts 172°
2026-04-23 14:49 -2.92746 -79.76488 21120 ft 427 kts 172°
2026-04-23 14:49 -2.95701 -79.76084 21568 ft 430 kts 172°
2026-04-23 14:49 -2.98674 -79.75688 21995 ft 433 kts 172°
2026-04-23 14:49 -3.01673 -79.75295 22423 ft 436 kts 172°
2026-04-23 14:50 -3.04703 -79.74907 22852 ft 439 kts 172°
2026-04-23 14:50 -3.07746 -79.74521 23275 ft 442 kts 172°
2026-04-23 14:50 -3.10804 -79.74135 23680 ft 445 kts 172°
2026-04-23 14:50 -3.13884 -79.73743 24013 ft 447 kts 171°
2026-04-23 14:51 -3.16981 -79.73345 24359 ft 449 kts 171°
2026-04-23 14:51 -3.21945 -79.72706 24900 ft 452 kts 171°
2026-04-23 14:51 -3.28143 -79.71912 25604 ft 456 kts 171°
2026-04-23 14:51 -3.34457 -79.71105 26278 ft 459 kts 171°
2026-04-23 14:52 -3.40820 -79.70289 26913 ft 464 kts 171°
2026-04-23 14:52 -3.47232 -79.69468 27680 ft 463 kts 171°
2026-04-23 14:52 -3.53635 -79.68654 28690 ft 460 kts 170°
2026-04-23 14:52 -3.59968 -79.67847 29622 ft 458 kts 170°
2026-04-23 14:53 -3.64229 -79.67304 30296 ft 456 kts 170°
2026-04-23 14:53 -3.70505 -79.66501 31211 ft 452 kts 169°
2026-04-23 14:53 -3.76718 -79.65697 32136 ft 449 kts 169°
2026-04-23 14:53 -3.82800 -79.64915 33097 ft 444 kts 169°
2026-04-23 14:54 -3.88916 -79.64131 33995 ft 442 kts 169°
2026-04-23 14:54 -3.94992 -79.63350 34774 ft 439 kts 169°
2026-04-23 14:54 -4.01067 -79.62572 35177 ft 443 kts 169°
2026-04-23 14:54 -4.07279 -79.61774 35176 ft 451 kts 169°
2026-04-23 14:55 -4.19780 -79.60164 35157 ft 453 kts 169°
2026-04-23 14:55 -4.32291 -79.58563 35127 ft 453 kts 169°
2026-04-23 14:56 -4.44807 -79.56957 35151 ft 453 kts 169°
2026-04-23 14:56 -4.57216 -79.55376 35165 ft 453 kts 169°
2026-04-23 14:57 -4.69731 -79.53832 35170 ft 452 kts 169°
2026-04-23 14:57 -4.82216 -79.52275 35175 ft 452 kts 169°
2026-04-23 14:58 -4.94709 -79.50703 35161 ft 452 kts 169°
2026-04-23 14:58 -5.07216 -79.49144 35163 ft 453 kts 169°
2026-04-23 14:59 -5.19721 -79.47585 35148 ft 453 kts 169°
2026-04-23 14:59 -5.32264 -79.46017 35104 ft 456 kts 169°
2026-04-23 15:00 -5.44900 -79.44431 35082 ft 459 kts 170°
2026-04-23 15:00 -5.57512 -79.42867 35091 ft 460 kts 169°
2026-04-23 15:01 -5.70212 -79.41269 35110 ft 459 kts 170°
2026-04-23 15:01 -5.82906 -79.39673 35106 ft 459 kts 170°
2026-04-23 15:02 -5.95582 -79.38078 35101 ft 459 kts 170°
2026-04-23 15:02 -6.08267 -79.36504 35088 ft 460 kts 170°
2026-04-23 15:03 -6.20982 -79.34902 35095 ft 461 kts 170°
2026-04-23 15:03 -6.33720 -79.33304 35106 ft 461 kts 170°
2026-04-23 15:04 -6.46399 -79.31710 35094 ft 462 kts 169°
2026-04-23 15:04 -6.59156 -79.30099 35088 ft 462 kts 169°
2026-04-23 15:05 -6.71934 -79.28494 35092 ft 463 kts 169°
2026-04-23 15:05 -6.84740 -79.26894 35131 ft 463 kts 170°
2026-04-23 15:06 -6.97525 -79.25275 35113 ft 463 kts 170°
2026-04-23 15:06 -7.10307 -79.23672 35092 ft 463 kts 170°
2026-04-23 15:07 -7.23107 -79.22058 35052 ft 463 kts 170°
2026-04-23 15:07 -7.35856 -79.20447 35040 ft 465 kts 170°
2026-04-23 15:08 -7.48692 -79.18837 35028 ft 465 kts 171°
2026-04-23 15:09 -7.67998 -79.16395 35036 ft 466 kts 170°
2026-04-23 15:09 -7.80878 -79.14775 35029 ft 466 kts 170°
2026-04-23 15:10 -7.91599 -79.13416 35034 ft 466 kts 170°
2026-04-23 15:10 -8.06639 -79.11445 35038 ft 465 kts 165°
2026-04-23 15:10 -8.12617 -79.09115 35037 ft 458 kts 148°
2026-04-23 15:11 -8.18179 -79.05985 35038 ft 458 kts 148°
2026-04-23 15:11 -8.29375 -78.99790 35024 ft 458 kts 148°
2026-04-23 15:12 -8.40545 -78.93576 35051 ft 458 kts 148°
2026-04-23 15:12 -8.51648 -78.87396 35024 ft 458 kts 148°
2026-04-23 15:13 -8.62823 -78.81172 35046 ft 459 kts 148°
2026-04-23 15:13 -8.74079 -78.74905 35043 ft 459 kts 148°
2026-04-23 15:14 -8.85189 -78.68705 35052 ft 459 kts 148°
2026-04-23 15:14 -8.96365 -78.62467 35034 ft 459 kts 148°
2026-04-23 15:15 -9.07570 -78.56213 35015 ft 460 kts 148°
2026-04-23 15:15 -9.18843 -78.50052 35056 ft 462 kts 150°
2026-04-23 15:16 -9.30504 -78.44552 35044 ft 463 kts 152°
2026-04-23 15:16 -9.42154 -78.38895 35067 ft 464 kts 151°
2026-04-23 15:17 -9.53808 -78.33201 35101 ft 465 kts 151°
2026-04-23 15:17 -9.65493 -78.27517 35119 ft 466 kts 151°
2026-04-23 15:18 -9.77190 -78.21817 35137 ft 467 kts 151°
2026-04-23 15:18 -9.88904 -78.16114 35131 ft 467 kts 151°
2026-04-23 15:19 -10.00620 -78.10381 35115 ft 468 kts 151°
2026-04-23 15:19 -10.12366 -78.04635 35065 ft 469 kts 151°
2026-04-23 15:19 -10.18167 -78.01800 34583 ft 468 kts 152°
2026-04-23 15:20 -10.22127 -77.99867 34266 ft 468 kts 152°
2026-04-23 15:20 -10.29923 -77.96059 33617 ft 469 kts 152°
2026-04-23 15:20 -10.35800 -77.93188 33117 ft 469 kts 152°
2026-04-23 15:20 -10.41690 -77.90317 32625 ft 468 kts 152°
2026-04-23 15:21 -10.47552 -77.87454 32142 ft 467 kts 152°
2026-04-23 15:21 -10.53402 -77.84587 31646 ft 466 kts 152°
2026-04-23 15:21 -10.59253 -77.81717 30138 ft 472 kts 153°
2026-04-23 15:21 -10.65209 -77.78802 27825 ft 475 kts 153°
2026-04-23 15:22 -10.71098 -77.75925 26390 ft 463 kts 153°
2026-04-23 15:22 -10.76881 -77.73094 24906 ft 456 kts 153°
2026-04-23 15:22 -10.82583 -77.70304 23385 ft 452 kts 153°
2026-04-23 15:22 -10.88201 -77.67559 21930 ft 443 kts 153°
2026-04-23 15:23 -10.93719 -77.64853 20538 ft 435 kts 153°
2026-04-23 15:23 -10.99129 -77.62196 19232 ft 428 kts 153°
2026-04-23 15:23 -11.04456 -77.59582 17968 ft 423 kts 153°
2026-04-23 15:23 -11.09712 -77.56999 16775 ft 416 kts 153°
2026-04-23 15:24 -11.14798 -77.54501 16354 ft 391 kts 153°
2026-04-23 15:24 -11.19514 -77.52181 16112 ft 363 kts 153°
2026-04-23 15:24 -11.23914 -77.50019 15879 ft 340 kts 153°
2026-04-23 15:24 -11.28099 -77.48005 15347 ft 328 kts 154°
2026-04-23 15:25 -11.32230 -77.46074 14098 ft 326 kts 154°
2026-04-23 15:25 -11.36295 -77.44175 13060 ft 317 kts 154°
2026-04-23 15:25 -11.40282 -77.42298 12142 ft 314 kts 154°
2026-04-23 15:25 -11.44216 -77.40438 11234 ft 309 kts 154°
2026-04-23 15:26 -11.48092 -77.38610 10336 ft 304 kts 155°
2026-04-23 15:26 -11.51936 -77.36802 9429 ft 307 kts 155°
2026-04-23 15:26 -11.55808 -77.34979 8663 ft 305 kts 155°
2026-04-23 15:26 -11.59600 -77.33196 8207 ft 293 kts 155°
2026-04-23 15:27 -11.63187 -77.31504 7941 ft 276 kts 155°
2026-04-23 15:27 -11.66638 -77.29876 7423 ft 270 kts 155°
2026-04-23 15:27 -11.69993 -77.28290 6882 ft 267 kts 155°
2026-04-23 15:27 -11.73328 -77.26712 6285 ft 261 kts 156°
2026-04-23 15:28 -11.76599 -77.25168 5160 ft 260 kts 155°
2026-04-23 15:28 -11.79907 -77.23600 4079 ft 254 kts 153°
2026-04-23 15:28 -11.82074 -77.21223 3583 ft 226 kts 134°
2026-04-23 15:28 -11.84542 -77.20153 3076 ft 205 kts 154°
2026-04-23 15:29 -11.85707 -77.19348 2813 ft 203 kts 143°
2026-04-23 15:29 -11.86949 -77.18552 2299 ft 212 kts 162°
2026-04-23 15:29 -11.88329 -77.18222 2201 ft 193 kts 162°
2026-04-23 15:29 -11.89519 -77.17686 2124 ft 182 kts 155°
2026-04-23 15:30 -11.90647 -77.17125 2054 ft 178 kts 155°
2026-04-23 15:30 -11.91764 -77.16571 1950 ft 177 kts 155°
2026-04-23 15:30 -11.92848 -77.16037 1764 ft 172 kts 155°
2026-04-23 15:30 -11.93918 -77.15509 1552 ft 165 kts 155°
2026-04-23 15:31 -11.94924 -77.15013 1350 ft 158 kts 155°
2026-04-23 15:31 -11.95874 -77.14545 1145 ft 147 kts 155°
2026-04-23 15:31 -11.96782 -77.14097 943 ft 144 kts 155°
2026-04-23 15:31 -11.97683 -77.13654 748 ft 143 kts 155°
2026-04-23 15:32 -11.98579 -77.13212 563 ft 143 kts 156°
2026-04-23 15:32 -11.99476 -77.12770 376 ft 143 kts 156°
2026-04-23 15:32 -12.00368 -77.12331 188 ft 142 kts 156°
2026-04-23 15:32 -12.01254 -77.11897 63 ft 136 kts 157°
2026-04-23 15:33 -12.01983 -77.11538 60 ft 88 kts 153°
2026-04-23 15:33 -12.02211 -77.11364 67 ft 21 kts 127°
2026-04-23 15:33 -12.02248 -77.11318 62 ft 14 kts 130°
2026-04-23 15:33 -12.02290 -77.11267 71 ft 0 kts 129°
2026-04-23 15:34 -12.02293 -77.11264 71 ft 1 kts 129°
2026-04-23 15:34 -12.02298 -77.11258 67 ft 1 kts 129°
2026-04-23 15:34 -12.02302 -77.11252 68 ft 0 kts 129°
2026-04-23 15:35 -12.02305 -77.11249 68 ft 2 kts 129°
2026-04-23 15:35 -12.02335 -77.11212 64 ft 9 kts 128°
2026-04-23 15:35 -12.02381 -77.11142 69 ft 13 kts 116°
2026-04-23 15:35 -12.02404 -77.11046 73 ft 15 kts 79°
2026-04-23 15:36 -12.02360 -77.10944 69 ft 14 kts 64°
2026-04-23 15:36 -12.02354 -77.10931 69 ft 0 kts 64°